Portada
METAR-TAF:

METAR-TAF

Aeroports :

Nowshahr, Iran

latitud: 36-39-48N, longitud: 051-27-53E, altitud: 0 m

Observació

L'informe es va fer fa 57 minuts, a les 12:00 UTC
Vent 10 kt del Oest/Nord-Oest
Temperatura 13°C
Humitat 82%
Pressió 1022 hPa
Visibilitat 10 km o més
Escasses núvols a una alçada de 2000 ft, Cumulonimbus.
Cel ennuvolat a una alçada de 2700 ft
Cel ennuvolat a una alçada de 9000 ft

METAR: OINN 191200Z 30010KT 9999 FEW020CB BKN027 BKN090 13/10 Q1022

Hora: 16:27 (12:57 UTC)


TAF: manca

Observacions i pronòstics meteorològics de més de 4000 aeroports (METAR i TAF).

Les estacions disponibles són els punts grocs i vermells al mapa.

Posi el ratolí al punt desitjat per veure el nom de l'estació.

Feu clic per veure les observacions i els pronòstics meteorològics.

Per canviar el mapa: feu clic els botons verds amb una creu de color negre per apropar; al botó verd amb un guió per allunyar la imatge; o en les fletxes verdes per a mapes adjacents.


METAR-TAF: